COSMOS 1275 DEB, 13808

Orbit data source: Space-Track

COSMOS 1275 DEB, 13808 is space debris in LEO originally from a launch on Thu, 04 Jun 1981 UTC launched from the Plesetsk Missile And Space Complex (PKMTR). Debris objects in space refer to the collection of defunct objects orbiting the Earth. Examples of debris include non-operational satellites, rocket bodies, and fragments generated from explosions, collisions, or faulty payload assembly.

Loading next visibility...
Identifier
13808, 1981-053HC
Orbit
LEO
Country
Flag of CISCIS
Related business
Manufacturer
Unknown
Mission
Spacecraft
Bus & Motor
Unknown
Mass
Unknown
Launch date (UTC)
1981-06-04 (45 years ago)
Launch vehicle
Unknown
Launch site
Plesetsk Missile And Space Complex (PKMTR)
Object type
Payload
Rocket body
Debris
Shape & HBR
Unknown shape, 0.1 m
Radar Cross Section
Small (<0.1 m²)

Expand to show TLE details & history
Last TLE update: 8 hours ago

TLE from 8 hours ago
0 COSMOS 1275 DEB
1 13808U 81053HC  25355.39220440  .00001458  00000-0  10879-2 0  9996
2 13808  83.0318 113.5205 0059419 277.2707 144.8385 13.93394839165526
Epoch: 2025-12-21T09:24Z
TLE epoch observation values (Epoch: 2025-12-21T09:24:46.460Z)
Latitude
61.78792°
Longitude
-104.77898°
Altitude
962.873 km
Speed
7.358 km/s
True Right ascension
08h 26m 28s
True Declination
61° 38' 54"
Sunlit
Object was in full shadow at epoch
Visualization orbit readout
Latitude
Unknown
Longitude
Unknown
Altitude
Unknown
Speed
Unknown
Apparent Right ascension
Unknown
Apparent Declination
Unknown
Sunlit
N/A
Visualization observer readout
Local Sidereal Time
16:19:19
Azimuth
Unknown
Elevation
Unknown
Doppler factor
Unknown
Orbital elements
Apogee altitude
957.206 km
Perigee altitude
870.549 km
Semi-major axis
7,292.015 km
Eccentricity
0.00594
Inclination
83.0318°
RAAN
113.5205°
Arg. of periapsis
277.2707°
True anomaly
145.22824°
Mean anomaly
144.8385°
Eccentric anomaly
145.03361°
Mean motion
3.48555 °/min
Orbital period
103.28 mins
BSTAR
0.0010879
Loading maneuver chart data...
Computing Atmospheric mass density...
Loading historical data...
Loading historical data...
Loading historical data...
Loading historical data...
Loading historical data...
Loading historical data...
Loading historical data...

Documentation

Showing up to 5 results
|